Home   Weather   Leicester   Past weeks

Flag for United Kingdom Past Weather in Leicester, England, United Kingdom — Yesterday and Last 2 Weeks

Now
52 °F

Sunny.


Feels Like: 51 °F
Forecast: 42 / 58 °F
Wind: 3 mph from Northeast

Location: East Midlands

Current Time: Oct 1, 2016 at 11:36:16 AM

Latest Report: Oct 1, 2016 at 11:20 AM


Visibility: 10 mi

Pressure: 29.68 "Hg

Humidity: 94%

Dew Point: 50 °F

Location of LeicesterLocation

Past Weather in Leicester — Graph

°F

Leicester Temperature Yesterday

Maximum temperature yesterday: 63 °F (at 12:50 PM)
Minimum temperature yesterday: 48 °F (at 5:20 AM)
Average temperature yesterday: 54 °F

High & Low Weather Summary for the Past Weeks

 TemperatureHumidityPressure
High70 °F (Sep 24, 2:50 PM)100% (Sep 19, 7:50 AM)30.24 "Hg (Sep 19, 7:50 AM)
Low43 °F (Oct 1, 7:20 AM)46% (Sep 29, 3:50 PM)29.68 "Hg (Sep 25, 3:50 AM)
Average57 °F80%30.04 "Hg
* Reported Sep 16 10:20 AM — Oct 1 10:20 AM, Leicester, Weather by CustomWeather, © 2016

Note: Actual official high and low records may vary slightly from our data, if they occured in-between our weather recording intervals... More about our weather records

Advertising

Leicester Weather History for the Previous 24 Hours

Scroll right to see more
 ConditionsComfort  
Time TempWeatherWind HumidityBarometerVisibility
10:20 AM
Sat, Oct 1
50 °FPassing clouds.6 mph94%29.68 "HgN/A
9:50 AM48 °FPassing clouds.5 mph94%29.68 "HgN/A
9:20 AM48 °FPassing clouds.7 mph94%29.68 "HgN/A
8:50 AM46 °FPassing clouds.6 mph100%29.68 "HgN/A
8:20 AM46 °FPassing clouds.7 mph93%29.68 "HgN/A
7:20 AM43 °FPassing clouds.5 mph100%29.68 "HgN/A
6:50 AM45 °FClear.No wind93%29.71 "Hg10 mi
6:20 AM46 °FClear.6 mph93%29.71 "Hg10 mi
5:50 AM46 °FClear.7 mph93%29.71 "Hg10 mi
5:20 AM46 °FPassing clouds.6 mph93%29.71 "HgN/A
4:50 AM46 °FClear.3 mph93%29.71 "Hg10 mi
4:20 AM46 °FClear.6 mph93%29.71 "Hg10 mi
3:50 AM46 °FPassing clouds.5 mph93%29.71 "HgN/A
3:20 AM48 °FClear.6 mph94%29.74 "Hg10 mi
2:50 AM48 °FClear.5 mph94%29.74 "Hg10 mi
2:20 AM48 °FClear.7 mph94%29.77 "Hg10 mi
1:50 AM48 °FPassing clouds.6 mph94%29.77 "HgN/A
1:20 AM50 °FClear.5 mph88%29.77 "Hg10 mi
12:50 AM50 °FClear.7 mph88%29.77 "Hg10 mi
12:20 AM50 °FClear.8 mph88%29.77 "Hg10 mi
11:50 PM
Fri, Sep 30
52 °FPassing clouds.7 mph88%29.80 "HgN/A
11:20 PM52 °FPassing clouds.7 mph88%29.80 "HgN/A
10:50 PM52 °FPassing clouds.8 mph82%29.80 "HgN/A
10:20 PM52 °FClear.7 mph82%29.80 "Hg10 mi
9:50 PM52 °FPassing clouds.8 mph82%29.80 "HgN/A
9:20 PM52 °FClear.6 mph82%29.80 "Hg10 mi
8:50 PM52 °FClear.7 mph82%29.83 "Hg10 mi
8:20 PM52 °FClear.7 mph82%29.83 "Hg10 mi
7:50 PM52 °FPassing clouds.6 mph88%29.83 "HgN/A
7:20 PM54 °FPassing clouds.7 mph88%29.80 "HgN/A
6:50 PM54 °FPassing clouds.8 mph88%29.80 "HgN/A
6:20 PM54 °FScattered clouds.7 mph88%29.80 "HgN/A
5:50 PM54 °FPartly sunny.7 mph88%29.80 "HgN/A
5:20 PM57 °FScattered showers. Scattered clouds.5 mph67%29.80 "HgN/A
4:50 PM59 °FScattered clouds.6 mph63%29.80 "HgN/A
4:20 PM59 °FScattered clouds.7 mph63%29.80 "HgN/A
3:50 PM57 °FPartly sunny.12 mph67%29.80 "HgN/A
3:20 PM61 °FScattered showers. Partly sunny.14 mph55%29.80 "HgN/A
2:50 PM63 °FScattered clouds.17 mph49%29.80 "HgN/A
2:20 PM59 °FScattered clouds.14 mph59%29.83 "HgN/A
1:50 PM61 °FScattered clouds.15 mph52%29.83 "HgN/A
1:20 PM61 °FPartly sunny.16 mph55%29.83 "HgN/A
12:50 PM63 °FPartly sunny.15 mph52%29.83 "HgN/A
12:20 PM59 °FScattered clouds.16 mph63%29.83 "HgN/A
11:50 AM59 °FPartly sunny.17 mph63%29.83 "HgN/A
11:20 AM57 °FScattered clouds.15 mph67%29.86 "HgN/A
Weather by CustomWeather, © 2016

See weather overviewHow to use our weather pages